Location: Lake Lucerne
(45.5315°N, 88.8489°W)
Time: 05:21:28
(UTC-05:00)

Tiangong 1 - Visible Passes

Search period start: 21 August 2017 00:00
Search period end: 31 August 2017 00:00
Orbit: 312 x 337 km, 42.8° (Epoch: 20 August)

Date Brightness Start Highest point End Pass type
(mag) Time Alt. Az. Time Alt. Az. Time Alt. Az.
21 Aug 1.7 20:21:24 10° W 20:23:59 35° SSW 20:26:34 10° ESE visible
21 Aug 3.7 21:57:44 10° SW 21:57:46 10° SW 21:57:46 10° SW visible
22 Aug 2.5 20:38:04 10° WSW 20:40:22 23° SSW 20:42:25 11° SSE visible
23 Aug 3.3 20:55:07 10° WSW 20:56:34 13° SSW 20:58:00 10° S visible
